GEFSSGP_850_meantemp_324.txt.gz
Temperature
21 21 20 20 20 20 22 24 25 25 24 24 24 23 22 22 21 20 20 20 20 20 20 20 20 20 19 19 19 19 19 19 19 19 19 19 19 19 19 19 19 19 19 19 19 19 18 18 18
21 21 20 20 20 21 23 24 25 25 25 24 24 23 22 21 21 20 20 20 20 20 20 20 20 20 19 19 19 19 19 19 19 19 19 19 19 19 19 19 19 18 19 19 19 19 18 18 18
22 21 20 20 21 22 24 25 25 25 25 25 24 23 22 21 21 20 20 20 20 20 20 20 20 20 19 19 19 19 19 19 19 19 19 19 19 19 19 19 19 19 19 19 19 18 18 18 18
22 21 21 21 23 24 25 25 25 25 25 24 23 22 22 21 21 21 20 21 20 20 20 20 20 20 19 19 19 19 19 19 19 19 19 19 19 19 19 19 19 19 19 19 18 18 18 18 18
22 21 21 22 24 26 26 26 26 25 25 24 23 22 21 21 21 21 21 20 20 20 20 20 20 20 19 19 19 19 19 19 19 19 19 19 19 19 19 19 19 18 18 18 18 18 18 18 18
22 21 22 23 25 26 26 26 26 25 24 23 22 21 21 21 21 21 21 20 20 20 20 20 20 20 19 19 19 19 19 19 19 19 19 19 19 19 19 19 18 18 18 18 18 18 18 18 18
22 21 23 24 25 26 27 26 26 25 24 24 23 21 21 21 21 21 20 20 20 20 20 20 20 20 19 19 19 19 19 19 19 19 19 19 19 19 19 19 19 18 18 18 18 18 18 18 18
24 22 23 24 25 26 27 27 26 25 25 24 23 21 21 21 21 21 20 20 20 20 20 20 20 20 19 19 19 19 19 19 19 19 19 19 19 19 19 18 18 18 18 18 18 18 18 18 18
25 22 23 25 25 26 27 26 26 25 25 24 23 23 22 21 21 21 20 20 20 20 20 20 20 20 19 19 19 19 19 19 19 19 18 18 19 19 19 18 18 18 18 18 18 18 18 18 18
24 22 25 26 26 26 27 26 26 25 24 23 23 22 22 21 21 21 20 20 20 20 20 20 20 20 19 19 19 19 19 19 19 19 19 19 19 18 18 18 18 18 18 18 18 18 18 18 18
25 24 26 27 28 28 27 27 26 25 23 23 22 22 22 22 21 21 21 20 20 20 20 20 20 20 20 19 19 19 19 19 19 19 19 19 18 18 18 18 18 18 18 18 18 18 18 18 18
26 27 28 27 28 28 27 27 26 25 24 24 24 23 22 22 21 21 21 21 20 20 20 20 20 20 20 19 19 19 19 19 19 19 19 19 18 18 18 18 18 18 18 18 18 18 18 18 18
27 28 28 28 28 28 28 27 26 25 25 24 24 23 22 22 22 21 21 21 21 21 20 20 20 20 20 20 19 19 19 19 19 19 18 18 18 18 18 18 18 18 18 18 18 18 18 18 18
28 28 28 28 28 28 27 26 26 25 25 24 23 23 23 22 22 22 21 21 21 21 20 20 20 20 20 20 19 19 19 19 19 19 19 19 19 19 18 18 18 18 18 18 18 18 18 18 18
29 28 28 28 28 28 27 26 25 25 25 24 24 23 23 23 23 22 22 22 21 21 21 20 20 20 20 20 20 19 19 19 19 19 19 19 19 19 19 19 18 18 18 18 18 18 18 18 18
27 27 26 27 28 28 26 25 26 26 25 24 24 24 23 23 23 23 22 22 22 21 21 21 20 20 20 20 19 19 19 19 19 19 19 19 19 19 19 19 19 18 18 18 18 18 18 18 18
25 25 26 27 28 28 26 25 26 26 25 25 24 24 24 23 23 23 23 22 22 22 21 21 21 20 20 20 20 20 19 19 19 19 19 19 19 19 19 19 19 19 18 18 18 18 18 18 18
25 25 26 27 28 28 26 25 25 26 25 25 25 24 24 24 24 23 23 23 22 22 22 21 21 21 20 20 20 20 19 19 19 19 19 19 19 19 19 19 19 19 18 18 18 18 18 18 18
27 27 26 27 29 27 26 26 25 26 26 25 25 24 24 24 24 24 23 23 23 22 22 22 21 21 21 20 20 20 20 19 19 19 19 19 19 19 19 19 19 19 18 18 18 18 18 18 18
28 27 27 28 28 27 26 26 26 26 26 26 25 25 24 24 24 24 23 23 23 23 22 22 21 21 21 21 20 20 20 19 19 19 19 19 19 19 19 19 19 19 19 18 18 18 18 18 18
28 27 27 27 28 27 26 25 25 26 26 26 26 26 25 25 24 24 24 23 23 23 23 22 22 21 21 21 20 20 20 19 19 19 19 19 19 19 19 19 19 19 18 19 18 18 18 18 18
27 29 29 29 26 24 25 23 24 24 25 25 26 25 25 25 25 25 24 24 24 23 23 23 22 22 21 21 21 20 20 20 20 19 19 19 19 19 19 19 19 18 18 18 18 18 18 18 18
29 29 28 28 26 24 25 24 23 24 24 25 25 26 26 25 25 25 25 24 24 23 23 23 22 22 21 21 21 20 20 20 20 19 19 19 19 19 19 19 18 18 18 18 18 18 18 18 18
30 28 26 24 23 24 25 24 24 23 24 25 25 26 26 26 25 25 25 24 24 24 23 23 22 22 22 21 21 21 20 20 20 19 19 19 19 19 19 19 18 18 18 18 18 18 18 18 18
28 24 23 24 22 23 24 24 24 25 26 26 25 26 26 26 26 25 25 24 24 24 23 23 22 22 22 21 21 21 21 20 20 20 19 19 19 19 19 19 18 18 18 18 18 18 18 18 18
27 25 24 24 23 23 24 24 24 26 26 27 27 26 26 26 26 25 25 25 24 24 23 23 23 22 22 22 21 21 21 20 20 20 19 19 19 19 19 19 19 18 18 18 18 18 18 18 17
28 25 24 22 23 23 23 24 25 26 25 26 26 26 26 26 26 25 25 25 25 24 24 23 23 22 22 22 21 21 21 20 20 20 19 19 19 19 19 18 18 18 18 18 18 18 18 17 17
27 26 22 22 23 23 24 24 23 24 24 25 24 25 25 25 25 25 25 25 25 24 24 23 23 23 22 22 21 21 21 20 20 19 19 19 19 19 18 18 18 18 18 18 18 17 17 17 17
27 26 23 20 21 22 23 23 25 24 24 24 24 25 25 25 25 25 25 25 24 24 24 23 22 22 22 21 21 21 20 20 20 19 19 19 19 19 18 18 18 18 18 17 17 17 17 17 17
27 26 23 23 22 21 21 22 25 23 24 24 24 25 25 25 25 25 25 25 24 23 23 23 22 22 22 21 21 21 20 20 20 20 19 19 19 19 18 18 18 18 18 17 17 17 17 17 17

GEFSSGP_850_meantemp_330.txt.gz
Temperature
20 20 20 19 19 19 21 22 23 22 22 22 22 22 21 20 20 20 20 20 20 20 19 19 19 19 19 19 19 19 19 19 19 19 18 18 19 19 19 19 19 19 19 19 19 18 18 18 18
20 20 20 20 19 20 21 22 22 22 22 22 22 21 20 20 20 20 20 20 20 20 19 19 19 19 19 19 19 19 19 18 18 18 18 18 18 18 19 19 19 18 18 18 18 18 18 18 18
20 20 20 19 20 20 22 22 22 23 23 22 22 21 20 20 20 20 20 20 20 20 19 19 19 19 19 19 19 19 18 18 18 18 18 18 18 18 18 18 18 18 18 18 18 18 18 18 18
20 20 20 20 22 22 22 23 23 22 23 22 21 20 20 20 20 20 20 20 20 20 19 19 19 19 19 18 19 19 18 18 18 19 19 19 18 18 18 18 18 18 18 18 18 18 18 18 18
21 21 20 21 22 22 23 23 23 22 22 22 21 20 20 20 20 20 20 20 20 20 19 19 19 19 19 19 19 19 19 18 19 19 19 19 18 18 18 18 18 18 18 18 18 18 18 18 18
21 20 20 21 22 23 23 24 23 22 22 22 21 20 19 20 20 20 20 20 20 20 19 19 19 19 19 19 19 19 19 19 19 19 18 18 18 18 18 18 18 18 18 18 18 18 18 18 18
21 20 21 22 22 23 24 24 23 22 22 22 21 20 19 20 20 20 20 20 20 19 19 19 19 19 19 19 19 19 18 18 18 19 18 18 18 18 18 18 18 18 18 18 18 18 18 18 18
22 20 22 21 23 23 24 24 23 23 22 22 22 20 20 20 20 20 20 19 19 19 19 19 19 19 19 19 19 19 18 18 18 18 18 18 18 18 18 18 18 18 18 18 18 18 18 18 18
22 20 21 23 23 23 24 23 23 23 22 22 22 21 21 20 20 20 19 19 19 19 19 19 19 19 19 19 19 18 18 18 18 18 18 18 18 18 18 18 18 18 18 18 18 18 18 18 18
22 21 23 23 23 23 24 23 23 22 22 21 21 21 21 20 20 20 20 19 19 19 19 19 19 19 19 19 19 19 18 18 18 18 18 18 18 18 18 18 18 18 18 18 18 18 18 18 18
22 22 23 24 24 24 24 24 23 22 21 22 21 21 21 20 20 20 20 20 20 19 19 19 19 19 19 19 19 19 18 18 18 18 18 18 18 18 18 18 18 18 18 18 18 18 18 18 18
22 23 24 24 25 25 24 24 23 23 23 23 23 22 21 21 20 20 20 20 20 20 20 19 19 19 19 19 19 19 18 18 18 18 18 18 18 18 18 18 18 18 18 18 18 18 18 18 18
24 24 25 25 25 25 24 24 24 23 24 23 22 22 21 21 21 21 20 20 20 20 20 20 19 19 19 19 19 19 18 18 18 18 18 18 18 18 18 18 18 18 18 18 18 18 18 18 18
25 25 25 25 25 25 24 24 23 23 23 23 22 22 21 21 21 21 21 20 20 20 20 20 20 19 19 19 19 19 19 18 18 18 18 18 18 18 18 18 18 18 18 18 18 18 18 18 18
25 24 24 25 25 25 25 24 23 23 23 22 22 22 21 21 21 21 21 21 21 20 20 20 20 20 19 19 19 19 19 19 19 18 18 18 18 18 18 18 18 18 18 18 18 18 18 18 18
24 24 24 25 25 25 25 24 23 23 23 22 22 21 21 21 22 22 21 21 21 21 20 20 20 20 20 19 19 19 19 19 19 19 19 19 18 18 18 18 18 18 18 18 18 18 18 18 18
23 23 24 25 25 24 24 24 23 23 23 22 22 22 22 22 22 22 22 22 21 21 21 20 20 20 20 20 19 19 19 19 19 19 19 19 19 18 18 18 18 18 18 18 18 18 18 18 18
24 24 24 24 25 24 24 23 23 23 22 22 22 22 22 22 23 23 22 22 22 21 21 21 20 20 20 20 20 19 19 19 19 19 19 19 19 18 18 18 18 18 18 18 18 18 18 18 18
24 24 24 24 25 24 23 23 23 22 22 22 22 22 22 23 23 23 22 22 22 21 21 21 21 20 20 20 20 20 19 19 19 19 19 19 19 18 18 18 18 18 18 18 18 18 18 18 18
24 24 24 24 25 24 23 23 23 22 22 22 22 22 22 23 23 23 23 22 22 22 22 21 21 21 20 20 20 20 19 19 19 19 19 18 18 18 18 18 18 18 18 18 18 18 18 18 17
25 24 25 24 24 24 24 23 23 23 23 23 23 23 23 23 23 23 23 23 22 22 22 22 21 21 20 20 20 20 19 19 19 19 19 19 19 18 18 18 18 18 18 18 18 18 18 18 17
24 25 25 25 23 22 23 22 22 22 22 22 22 23 23 23 23 24 23 23 23 23 22 22 21 21 20 20 20 20 20 20 20 19 19 19 19 19 18 18 18 18 18 18 18 18 18 17 17
25 25 24 24 23 22 22 22 22 21 22 22 22 23 23 24 24 24 24 24 23 23 22 22 22 21 21 20 20 20 20 20 19 19 19 19 19 18 18 18 18 18 18 18 18 18 18 17 17
25 24 23 21 20 22 22 22 22 21 22 22 22 23 23 24 24 24 24 24 23 23 23 22 22 22 21 21 20 20 20 20 19 19 19 19 19 18 18 18 18 18 18 18 18 18 18 17 17
24 23 22 22 21 21 21 21 21 22 22 22 22 23 23 24 24 24 24 24 23 23 23 22 22 22 21 21 20 20 20 19 19 19 19 19 18 18 18 18 18 18 18 18 18 18 18 17 17
24 23 22 23 22 21 21 21 22 23 23 23 23 23 23 24 24 24 24 24 23 23 23 22 22 22 21 21 20 20 20 19 19 19 19 18 18 18 18 18 18 18 18 18 18 17 17 17 17
24 22 22 20 21 21 21 21 22 22 22 22 22 22 23 23 24 24 24 23 23 23 23 22 22 22 21 21 21 20 20 20 19 19 19 18 18 18 18 18 18 18 18 18 17 17 17 17 17
23 21 19 20 21 21 22 22 21 22 22 21 20 21 22 23 23 23 23 23 23 23 23 22 22 22 21 21 21 20 20 20 20 19 19 19 18 18 18 18 18 18 18 18 17 17 17 17 17
23 21 19 18 19 20 21 21 22 21 21 20 20 21 21 22 23 23 23 23 23 23 22 22 22 22 21 21 21 20 20 20 19 19 19 19 18 18 18 18 18 18 17 17 17 17 17 17 17
23 22 19 21 20 18 19 20 22 21 20 20 20 21 21 22 22 22 23 23 22 22 22 22 22 22 21 21 21 20 20 20 19 19 19 18 18 18 18 18 18 17 17 17 17 17 17 16 16

GEFSSGP_850_meantemp_336.txt.gz
Temperature
20 20 19 20 25 28 28 28 28 28 27 26 26 26 26 25 25 24 21 20 20 19 19 19 19 19 19 18 18 18 18 18 18 18 18 18 19 19 19 19 18 18 18 18 18 18 18 18 18
20 20 20 24 28 28 28 28 28 27 27 26 25 25 25 24 22 21 20 20 19 19 19 18 19 19 19 18 18 18 18 18 18 18 18 18 18 18 19 18 18 18 18 18 18 18 18 18 18
20 20 23 28 29 28 28 28 28 27 26 26 25 25 24 23 22 21 20 20 20 19 19 19 19 19 19 19 18 18 18 18 18 18 18 18 18 18 18 18 18 18 18 18 18 18 18 18 18
20 22 26 29 29 29 28 28 28 28 27 26 26 25 23 22 21 21 20 20 20 20 19 19 19 19 19 19 19 18 18 18 18 18 18 18 18 18 18 18 18 18 18 18 18 18 18 18 18
22 26 29 29 29 29 29 28 28 28 27 26 26 25 23 21 21 20 20 20 20 20 19 19 19 19 19 18 18 18 18 18 18 18 18 18 18 18 18 18 18 18 18 18 18 18 18 18 18
26 29 30 29 29 29 29 28 28 28 27 26 26 25 23 21 21 20 20 20 20 20 19 19 19 19 19 18 18 18 18 18 18 18 18 18 18 18 18 18 18 18 18 18 18 18 18 18 18
28 30 30 30 29 29 29 28 28 28 27 26 26 25 23 21 21 20 20 20 20 20 20 19 19 19 19 19 19 18 18 18 19 18 18 18 18 18 18 18 18 18 18 18 18 18 18 18 18
27 30 30 30 30 29 29 28 27 27 27 25 25 26 24 21 21 20 20 20 20 20 19 19 19 18 18 18 19 19 18 18 19 18 18 18 18 18 18 18 18 18 18 18 18 18 18 18 18
27 31 30 30 30 30 29 28 27 26 26 25 25 24 23 21 21 21 20 20 20 19 19 19 19 19 19 18 18 18 18 18 18 18 18 18 18 18 18 18 18 18 18 18 18 18 18 18 18
29 31 31 31 31 30 29 29 28 27 27 26 25 23 22 21 21 21 21 21 20 20 19 19 19 19 19 18 18 18 18 18 18 18 18 18 18 18 18 18 18 18 18 18 18 18 18 18 18
30 30 31 31 30 30 30 29 28 28 28 27 26 24 22 22 22 21 21 21 20 20 19 19 19 19 19 19 19 18 18 18 18 18 18 18 18 18 18 18 18 18 18 18 18 18 18 18 18
30 30 30 30 29 29 29 29 28 28 27 26 25 24 23 22 22 22 21 21 20 20 19 19 19 19 19 19 19 18 18 18 18 18 18 18 18 18 18 18 18 18 18 18 18 18 18 18 18
31 31 30 30 29 29 29 29 28 28 26 26 24 23 23 23 23 22 21 21 20 20 19 19 19 19 19 19 19 19 18 18 18 18 18 18 18 18 18 18 18 18 18 18 18 18 18 18 18
31 30 30 30 30 29 30 29 29 27 26 25 25 24 24 23 23 22 21 21 21 20 20 19 19 19 19 19 19 19 18 19 18 18 18 18 18 18 18 18 18 18 18 18 18 18 18 18 18
30 31 32 31 31 30 30 30 29 27 26 26 25 24 24 23 23 22 22 21 21 20 20 20 20 19 19 19 19 19 18 18 18 18 18 18 18 18 18 18 18 18 18 18 18 18 18 18 18
32 32 32 32 31 30 31 30 30 27 27 27 26 25 24 23 23 22 22 21 21 21 20 20 20 19 19 19 19 19 19 19 18 18 18 18 18 18 18 18 18 18 18 18 18 18 18 18 18
32 32 32 32 32 31 31 31 30 28 28 27 26 25 25 24 23 23 22 22 21 21 21 20 20 20 19 19 19 19 19 19 18 18 18 18 18 18 18 18 18 18 18 18 18 18 18 18 18
32 32 32 32 32 31 31 31 30 28 28 28 27 26 25 25 24 23 22 22 21 21 21 21 20 20 20 19 19 19 19 19 19 19 19 19 18 18 18 18 18 18 18 18 18 18 18 18 18
32 32 32 32 32 31 31 31 31 29 28 28 28 27 26 25 24 23 22 22 21 21 21 21 21 20 20 20 19 19 19 19 19 19 19 19 19 18 18 18 18 18 18 18 18 18 18 18 18
32 32 32 32 31 31 31 31 31 30 29 28 28 27 27 26 25 23 23 22 22 21 21 21 21 21 20 20 20 19 19 19 19 19 19 19 18 18 18 18 18 18 18 18 18 18 18 18 18
32 32 32 31 31 32 31 31 30 30 29 28 27 27 27 26 25 24 23 23 22 22 22 21 21 21 21 20 20 19 19 19 19 19 19 19 19 19 18 18 18 18 18 18 18 18 18 18 18
32 32 32 31 31 32 31 31 31 30 30 29 28 27 27 26 26 25 24 23 22 22 22 22 21 21 21 20 20 19 19 19 19 19 19 19 19 19 18 18 19 18 18 18 18 18 18 18 18
32 32 32 32 32 32 32 31 31 31 30 30 29 28 27 26 26 25 24 23 23 22 22 22 21 21 21 20 20 20 19 19 19 19 19 19 18 18 18 18 19 18 18 18 18 18 18 18 17
31 31 31 32 32 31 31 31 31 31 30 30 29 28 27 26 25 25 24 23 23 22 22 21 21 21 21 21 20 20 19 19 19 19 19 18 18 18 18 18 19 18 18 18 18 18 18 18 17
32 32 31 31 31 31 31 31 30 31 30 30 29 28 27 26 25 24 24 23 23 22 21 21 21 21 21 20 20 20 20 19 19 19 19 18 18 18 18 18 18 18 18 18 18 18 18 17 17
32 32 31 30 30 31 31 31 31 30 29 28 28 27 26 25 25 24 23 23 22 22 21 21 21 21 21 20 20 20 20 19 19 19 18 18 18 18 18 18 18 18 18 18 18 17 17 17 17
32 32 33 32 31 31 31 31 30 30 29 29 28 27 26 25 24 24 23 23 22 22 21 21 21 21 21 20 20 20 20 20 19 19 19 18 18 18 18 18 18 18 18 18 18 17 17 17 17
32 32 32 31 29 30 31 30 31 29 29 29 28 27 26 25 24 23 23 22 22 22 21 21 20 21 20 20 20 20 20 20 19 19 19 19 18 18 18 18 18 18 18 18 18 17 17 17 17
31 31 31 31 30 30 30 30 31 29 29 29 28 26 25 25 24 23 23 22 22 22 21 21 20 20 20 20 20 19 19 19 19 19 19 19 18 18 18 18 18 18 18 18 18 17 17 17 17
31 31 31 30 29 30 30 30 30 29 29 28 27 26 25 24 24 23 22 22 21 21 21 21 20 20 20 20 19 19 19 19 19 18 18 19 19 18 18 18 18 18 17 17 17 17 17 16 16

GEFSSGP_850_meantemp_342.txt.gz
Temperature
22 22 21 21 23 25 28 30 30 30 29 29 29 28 27 27 26 23 22 22 21 20 20 20 20 19 19 19 19 19 19 19 19 19 19 19 19 19 19 19 19 19 19 19 19 19 19 19 19
22 21 22 23 25 27 29 30 30 30 30 29 28 28 27 26 24 23 22 22 21 21 20 20 20 20 19 19 19 19 19 19 19 19 19 19 19 19 19 19 19 19 19 19 19 19 19 19 19
22 22 24 26 28 28 29 30 30 30 30 29 28 27 26 25 24 23 22 22 21 21 20 21 20 20 20 19 19 19 19 19 19 19 19 19 19 19 19 19 19 19 19 19 19 19 19 19 19
22 24 26 28 29 30 31 31 31 31 30 29 28 27 25 25 24 23 23 23 22 21 20 21 20 20 20 20 19 19 19 19 19 19 19 19 19 19 19 19 19 19 19 19 19 19 19 19 19
24 26 28 29 30 31 32 32 31 31 30 29 28 27 25 24 24 23 23 23 22 21 21 21 20 20 20 20 20 19 19 19 19 19 19 19 19 19 19 19 19 19 19 19 19 19 19 19 19
27 28 29 29 31 32 32 32 31 31 30 29 28 26 25 24 24 23 23 23 22 21 21 21 21 20 20 20 20 20 19 19 19 19 19 19 19 19 19 19 19 19 19 19 19 19 19 19 19
28 29 30 31 31 31 32 31 31 31 30 29 28 27 25 24 24 24 23 23 23 22 21 21 21 20 20 20 20 20 20 19 19 19 19 19 19 19 19 19 19 19 19 19 19 19 19 19 19
30 31 31 31 31 31 32 31 31 30 30 29 28 27 25 24 24 24 23 23 23 22 21 21 20 20 20 20 20 20 20 19 19 19 19 19 19 19 19 19 19 19 19 19 19 19 19 19 19
31 31 31 32 32 32 32 32 31 30 29 29 28 27 25 24 24 24 23 23 23 22 21 21 20 20 20 20 20 20 19 19 19 19 19 19 19 19 19 19 19 19 19 19 19 19 19 19 19
31 30 32 33 33 33 32 32 31 31 30 29 27 26 25 25 24 24 24 23 22 22 22 21 21 21 20 20 20 20 19 19 19 19 19 19 19 19 19 19 19 19 19 19 19 19 19 19 19
32 32 33 34 34 33 33 32 32 31 30 29 28 26 25 25 24 24 24 23 22 22 22 21 21 21 20 20 20 20 19 19 19 19 19 19 19 19 19 19 19 19 19 19 19 19 19 19 19
34 34 34 34 34 33 33 32 32 31 30 29 28 27 26 25 25 24 24 23 22 22 22 21 21 21 21 20 20 20 19 19 19 19 19 19 19 19 19 19 19 19 19 19 19 19 19 19 19
34 34 34 34 34 33 32 32 31 31 30 29 28 27 26 26 25 25 24 23 23 22 22 21 21 21 20 20 20 20 20 20 19 19 19 19 19 19 19 19 19 19 19 19 19 19 19 19 19
34 34 34 34 34 33 33 32 31 30 30 29 28 27 27 26 26 25 24 23 23 22 22 21 21 21 20 20 20 20 20 20 20 19 19 19 19 19 19 19 19 19 19 19 19 19 19 19 19
34 33 34 34 34 34 33 31 31 30 30 29 29 28 27 27 26 25 24 24 23 22 22 21 21 20 20 20 20 20 20 20 20 20 20 19 19 19 19 19 19 19 19 19 19 19 19 19 19
33 32 32 34 35 34 33 30 31 30 30 30 29 28 27 27 26 25 24 24 23 22 22 21 21 21 20 20 20 20 20 20 20 20 20 20 19 19 19 19 19 19 19 19 19 19 19 19 19
32 32 33 34 35 35 33 31 32 31 31 30 29 29 28 27 26 26 25 24 23 22 22 21 21 21 20 20 20 20 20 20 20 20 20 20 20 19 19 19 19 19 19 19 19 19 19 19 19
31 32 33 33 35 34 33 32 33 32 31 31 30 29 28 27 26 26 25 24 23 22 22 22 21 21 20 20 20 20 20 20 20 20 20 20 20 19 19 19 19 19 19 19 19 19 19 19 19
33 33 33 34 35 34 33 32 32 32 32 31 30 29 29 28 27 26 25 24 23 22 22 22 21 21 21 20 20 20 20 20 20 20 20 20 19 19 19 19 19 19 19 19 19 19 19 19 19
34 34 34 34 35 34 33 32 32 32 32 31 31 30 29 28 27 26 25 24 23 23 22 22 21 21 21 21 20 20 20 20 20 20 20 20 20 19 19 19 19 19 19 19 19 19 19 19 19
34 34 34 34 34 34 32 31 31 31 31 31 31 30 29 28 27 26 25 24 24 23 22 22 21 21 21 21 20 20 20 20 20 20 20 19 19 20 19 19 19 19 19 19 19 19 19 19 19
33 35 34 34 33 31 32 29 30 30 31 30 30 30 29 28 27 26 25 25 24 23 22 22 22 21 21 21 20 20 20 20 20 20 20 19 19 19 19 19 19 19 19 19 19 19 19 19 19
34 35 34 34 32 31 31 30 29 30 29 30 30 30 30 29 28 27 26 25 24 23 23 22 22 21 21 21 20 20 20 20 20 20 20 19 19 19 19 19 19 19 19 19 19 19 19 18 18
35 35 34 33 32 30 31 31 29 30 30 30 31 30 30 29 28 27 26 25 24 24 23 22 22 21 21 21 20 20 20 20 20 20 20 20 19 19 19 19 19 19 19 19 19 19 18 18 18
35 33 31 31 30 29 31 31 30 31 31 31 31 30 30 29 28 27 26 25 24 24 23 22 22 21 21 21 20 20 20 20 20 20 19 19 19 19 19 19 19 19 19 19 18 18 18 18 18
34 34 31 30 29 29 30 30 31 32 31 31 31 30 30 29 28 27 26 25 24 24 23 22 22 21 21 21 20 20 20 20 19 19 19 19 19 19 19 19 19 19 19 18 18 18 18 18 18
34 34 34 33 32 31 30 30 31 31 31 31 31 30 29 28 27 27 26 25 24 24 23 22 22 21 21 20 20 20 20 19 19 19 19 19 19 19 19 19 19 19 18 18 18 18 18 18 18
35 34 33 32 30 30 31 30 29 29 30 31 30 29 29 28 27 26 26 25 24 24 23 22 22 21 21 20 20 20 20 19 19 19 19 19 19 19 19 19 18 18 18 18 18 18 17 18 17
34 34 33 33 32 30 30 30 31 30 31 31 31 29 28 28 27 26 25 25 24 23 23 22 21 21 21 20 20 20 19 19 19 19 19 18 18 18 18 18 18 18 18 18 18 18 17 17 17
34 34 33 32 30 30 30 30 32 31 31 30 30 29 28 27 27 26 25 24 23 23 22 22 21 21 21 20 20 19 19 19 19 19 19 19 18 18 18 18 18 18 18 18 17 17 17 17 17

GEFSSGP_850_meantemp_348.txt.gz
Temperature
22 21 21 20 20 21 22 24 25 25 25 25 25 24 23 22 22 20 20 20 21 21 20 20 20 20 19 19 19 19 19 19 19 19 19 19 19 19 19 19 19 19 19 19 19 19 19 19 19
22 21 21 20 20 21 23 25 25 25 25 25 24 24 23 22 21 20 20 20 21 21 20 20 20 20 19 19 19 19 19 19 19 19 19 19 19 19 19 19 19 19 19 19 19 19 19 19 19
22 21 21 20 21 22 24 25 26 26 26 26 25 24 23 22 21 21 21 21 21 21 20 20 20 20 20 20 19 19 19 19 19 19 19 19 19 19 19 19 19 19 19 19 19 19 19 19 19
22 21 21 21 23 24 25 26 26 26 26 25 24 23 23 22 22 22 21 21 21 21 21 21 20 20 20 20 20 19 19 19 19 19 19 19 19 19 19 19 19 19 19 19 19 19 19 19 19
22 21 21 22 24 25 26 27 27 26 25 24 24 22 22 22 22 22 21 21 21 21 21 21 20 20 20 20 20 20 19 19 19 19 19 19 19 19 19 19 19 19 19 19 19 19 19 19 19
22 21 21 22 25 26 27 27 27 25 25 24 23 22 22 22 22 21 21 21 21 21 21 21 21 20 20 20 20 20 19 19 19 19 19 19 19 19 19 19 19 19 19 19 19 19 19 19 19
22 21 22 24 25 26 27 27 26 25 25 24 24 22 22 22 22 22 21 21 21 21 21 21 21 20 20 20 20 20 19 19 19 19 19 19 19 19 19 19 19 19 19 19 19 19 19 19 19
24 22 23 24 25 26 27 28 27 26 25 25 24 22 22 22 22 22 21 21 21 21 21 21 21 20 20 20 20 20 19 19 19 19 19 19 19 19 19 19 19 19 19 19 19 19 19 19 19
25 22 23 24 25 26 27 27 27 26 25 25 25 24 23 22 22 21 21 21 21 21 21 21 21 20 20 20 20 20 19 19 19 19 19 19 19 19 19 19 19 19 19 19 19 19 19 19 19
24 22 24 26 26 26 27 27 27 26 25 24 24 24 23 22 22 22 21 21 21 21 21 21 21 20 20 20 20 19 19 19 19 19 19 19 19 19 19 19 19 19 19 19 19 19 19 19 19
25 24 26 28 28 28 27 27 27 25 24 24 24 23 23 23 22 22 22 22 21 21 21 21 21 20 20 20 20 19 19 19 19 19 19 19 19 19 19 19 19 19 19 19 19 19 19 19 19
26 27 28 28 29 29 28 27 27 26 25 25 25 24 23 23 22 22 22 22 21 21 21 21 21 21 20 20 20 20 19 19 19 19 19 19 19 19 19 19 19 19 19 19 19 19 19 19 19
27 28 29 29 29 29 28 27 27 26 26 25 24 24 23 23 23 23 22 22 22 21 21 21 21 21 20 20 20 20 19 19 19 19 19 19 19 19 19 19 19 19 19 19 19 19 19 19 19
28 28 28 29 29 29 27 27 26 26 25 25 24 24 24 23 23 23 22 22 22 21 21 21 21 21 20 20 20 20 20 19 19 19 19 19 19 19 19 19 19 19 19 19 19 19 19 19 19
29 27 27 28 28 28 27 26 26 26 25 25 24 24 24 24 23 23 23 22 22 22 21 21 21 21 20 20 20 20 20 20 20 20 20 19 19 19 19 19 19 19 19 19 19 19 19 19 19
27 26 26 27 28 28 26 24 26 26 25 24 24 24 24 24 23 23 23 23 22 22 22 21 21 21 21 20 20 20 20 20 20 20 20 20 19 19 19 19 19 19 19 19 19 19 19 19 19
25 25 26 27 28 28 26 25 25 26 25 25 24 24 24 24 24 23 23 23 23 22 22 22 21 21 21 20 20 20 20 20 20 20 20 20 19 19 19 19 19 19 19 19 19 19 19 19 19
25 26 27 27 28 28 26 25 25 26 25 25 24 24 24 24 23 23 23 23 23 22 22 22 21 21 21 21 20 20 20 20 20 20 20 20 19 19 19 19 19 19 19 19 19 19 19 19 19
27 27 27 27 28 27 26 25 25 25 25 24 24 24 24 24 24 23 23 23 23 23 22 22 21 21 21 21 20 20 20 20 20 20 20 20 19 19 19 19 19 19 19 19 19 19 19 19 19
28 27 27 28 29 27 25 25 25 25 25 25 24 24 24 24 24 23 23 23 23 23 22 22 22 21 21 21 21 21 20 20 20 20 20 19 19 19 19 19 19 19 19 19 19 19 19 19 19
28 27 27 28 28 27 26 24 24 25 25 25 24 24 24 24 23 23 23 23 23 23 23 22 22 21 21 21 21 20 20 20 20 20 20 19 19 19 19 19 19 19 19 19 19 19 19 18 18
28 29 29 28 26 24 25 23 23 23 23 24 23 23 23 24 24 24 23 23 23 23 23 22 22 21 21 21 21 20 20 20 20 20 20 19 19 19 19 19 19 19 19 19 19 19 18 18 18
29 30 29 28 25 23 24 23 22 23 23 23 23 23 23 24 24 24 23 23 23 23 22 22 22 21 21 21 21 20 20 20 20 19 19 19 19 19 19 19 19 19 19 19 19 19 18 18 18
30 28 27 24 23 23 23 23 22 22 22 23 23 23 23 23 23 23 23 23 23 22 22 22 22 21 21 21 20 20 20 20 20 19 19 19 19 19 19 19 19 19 19 19 19 18 18 18 18
28 25 24 24 22 22 23 23 22 23 24 24 23 23 23 23 23 23 23 23 23 22 22 22 22 21 21 21 20 20 20 20 20 19 19 19 19 19 19 18 19 19 18 18 18 18 18 18 18
28 25 24 24 23 22 23 23 23 24 24 24 24 23 23 23 23 23 23 23 22 22 22 22 22 21 21 20 20 20 20 19 19 19 19 19 19 19 18 18 18 18 18 18 18 18 18 18 17
28 26 24 23 23 22 22 23 23 23 23 23 23 23 23 23 23 23 23 23 22 22 22 22 22 21 20 20 20 20 20 19 19 19 19 18 18 18 18 18 18 18 18 18 18 18 18 18 17
28 26 23 23 23 23 23 23 22 23 22 23 22 22 23 23 23 23 23 22 22 22 22 22 21 21 20 20 20 19 19 19 19 19 18 18 18 18 18 18 18 18 18 18 18 18 17 17 17
27 26 23 21 22 22 22 22 24 23 23 23 22 23 23 23 23 22 22 22 22 21 21 21 21 21 20 20 20 19 19 19 19 19 18 18 18 18 18 18 18 18 18 17 17 17 17 17 17
27 26 24 23 23 21 21 22 25 23 23 23 23 23 23 23 22 22 22 22 22 21 21 21 21 20 20 20 20 19 19 19 19 19 18 18 18 18 18 17 17 17 17 17 17 17 17 17 16

GEFSSGP_850_meantemp_354.txt.gz
Temperature
20 20 19 19 19 19 21 22 23 23 22 23 23 22 21 20 20 20 21 20 20 20 19 19 19 19 19 19 19 19 19 19 19 19 19 19 19 19 19 19 19 19 19 19 19 18 18 18 18
20 20 20 19 19 20 21 22 23 23 23 23 23 22 21 20 20 21 21 20 20 20 19 19 19 19 19 19 19 18 18 19 19 19 19 19 19 19 19 19 19 19 19 19 19 18 18 18 18
20 20 20 19 20 20 22 23 23 23 23 23 22 22 21 21 21 21 21 20 20 20 20 19 19 19 19 19 19 19 18 18 19 19 19 19 19 19 19 19 19 19 19 19 19 19 19 18 18
21 20 20 19 21 22 22 23 23 23 23 23 22 21 21 21 21 21 21 20 20 20 20 19 19 19 19 19 19 19 19 19 19 19 19 19 19 19 19 19 19 19 19 19 19 19 19 19 18
21 21 20 20 21 22 23 23 23 23 23 22 22 21 21 21 21 21 21 21 20 20 20 19 19 19 19 19 19 19 19 19 19 19 19 19 19 19 19 19 19 19 19 19 19 19 19 19 18
21 20 20 21 22 23 23 24 24 23 22 22 22 20 20 21 21 21 21 20 20 20 20 19 19 19 19 19 19 19 19 19 19 19 19 19 19 19 19 19 19 19 19 19 19 19 19 19 18
21 20 21 21 22 23 24 24 23 23 22 22 22 20 20 20 21 21 21 20 20 20 20 19 19 19 19 19 19 19 19 19 19 19 19 19 19 19 19 19 19 19 19 19 19 19 19 19 18
22 20 21 21 22 24 24 24 24 23 23 23 23 21 20 21 21 21 20 20 20 20 20 20 19 19 19 19 19 19 19 19 19 19 19 19 19 19 19 19 19 19 19 19 19 19 19 19 18
22 20 21 22 23 24 24 24 24 24 23 23 23 22 22 21 21 20 20 20 20 20 20 20 19 19 19 19 19 19 19 19 19 19 19 19 19 19 19 19 19 19 19 19 19 19 19 18 18
22 20 22 23 23 23 24 24 24 23 23 22 22 22 22 21 21 21 20 20 20 20 20 20 20 19 19 19 19 19 19 19 19 19 19 19 19 19 19 19 19 19 19 19 19 19 19 18 18
22 21 23 24 25 25 24 24 24 23 22 22 22 22 21 21 21 21 21 21 21 20 20 20 20 20 19 19 19 19 19 19 19 19 19 19 19 19 19 19 19 19 19 19 19 19 18 18 18
22 23 23 24 25 25 24 24 24 23 24 24 24 23 22 21 21 21 21 21 21 20 20 20 20 20 19 19 19 19 19 19 19 19 19 19 19 19 19 19 19 19 19 19 19 18 18 18 18
23 24 25 25 25 25 24 24 24 23 24 24 23 22 22 22 22 21 21 21 21 21 20 20 20 20 20 19 19 19 19 19 19 19 19 19 19 19 19 19 19 19 19 19 19 18 18 18 18
24 24 25 25 25 25 24 23 23 23 24 23 23 22 22 22 22 21 21 21 21 21 21 20 20 20 20 20 20 19 19 19 19 19 19 19 19 19 19 19 19 19 19 19 19 19 18 18 18
25 24 24 25 25 25 24 23 23 23 23 23 22 22 22 22 21 21 21 21 21 21 21 20 20 20 20 20 20 20 20 19 19 19 19 19 19 19 19 19 19 19 19 19 18 18 18 18 19
24 24 24 25 25 25 24 23 23 23 23 22 22 22 21 22 21 21 21 21 21 21 21 20 20 20 20 20 20 20 20 20 20 19 19 19 19 19 19 19 19 19 18 18 18 18 18 18 18
23 23 24 25 25 24 24 23 23 23 22 22 22 21 21 21 21 21 21 21 21 21 21 21 20 20 20 20 20 20 19 19 19 19 19 19 19 19 19 19 19 19 18 18 18 18 18 18 18
24 24 24 24 24 24 23 23 23 22 22 22 22 22 21 22 22 22 21 21 21 21 21 21 20 20 20 20 20 19 19 19 19 19 19 19 19 19 19 19 19 19 18 18 18 18 18 18 18
25 24 24 24 25 24 23 23 22 22 22 21 21 21 22 22 22 22 22 21 21 21 21 21 21 20 20 20 20 19 19 19 19 19 19 19 19 19 19 19 19 18 18 18 18 18 18 18 18
24 24 24 24 25 24 23 23 22 22 22 22 22 21 22 22 22 22 22 22 21 21 21 21 21 20 20 20 20 19 19 19 19 19 19 19 19 19 19 19 19 19 18 18 18 18 18 18 18
25 24 24 24 24 24 24 23 22 22 22 22 22 22 22 22 22 22 22 22 22 21 21 21 21 20 20 20 20 19 19 19 19 19 19 19 19 19 19 18 19 18 18 18 18 18 18 18 18
25 25 25 24 23 22 23 22 22 21 21 21 21 21 22 22 22 22 22 22 22 22 22 21 21 21 20 20 20 19 19 19 19 19 19 19 19 19 19 18 18 18 18 18 18 18 18 18 18
25 25 24 23 22 21 22 22 21 21 21 21 21 21 22 22 22 22 22 23 22 22 22 21 21 21 20 20 20 19 19 19 19 19 19 19 19 19 18 18 18 18 18 18 18 18 18 18 17
25 24 23 20 20 22 22 22 21 20 21 21 21 21 21 22 22 22 22 22 22 22 22 21 21 21 20 20 20 19 19 19 19 19 19 19 18 18 18 18 18 18 18 18 18 17 17 17 17
25 23 22 22 21 21 21 21 21 22 21 21 21 21 21 22 22 22 22 22 22 22 22 21 21 21 20 20 20 19 19 19 19 19 19 18 18 18 18 18 18 17 17 17 17 17 17 17 17
24 23 22 23 22 21 21 21 21 22 22 22 21 21 21 21 22 22 22 22 22 22 21 21 21 21 20 20 20 20 19 19 19 19 18 18 18 18 18 17 17 17 17 17 17 17 17 17 17
24 22 21 20 21 21 21 21 21 21 21 21 21 21 21 21 21 21 22 22 22 22 21 21 21 20 20 20 20 19 19 19 19 18 18 18 18 18 17 17 17 17 17 17 17 17 17 17 16
23 21 19 20 21 21 22 21 21 22 21 20 20 20 20 21 21 21 21 22 21 21 21 21 21 20 20 20 19 19 19 19 18 18 18 18 18 18 17 17 17 17 17 16 16 16 16 16 16
23 22 19 18 19 20 21 21 22 21 21 20 20 20 20 21 21 21 22 22 22 21 21 21 21 20 20 19 19 19 19 18 18 18 18 18 18 17 17 17 17 17 16 16 16 16 16 16 16
23 22 20 21 20 18 19 21 22 20 20 20 20 20 21 21 21 21 21 22 21 21 21 21 20 20 20 19 19 19 18 18 18 18 18 18 18 17 17 17 17 16 16 16 16 16 16 16 16